Regional Weather Roundup
Issued by NWS

Home | Current Version | Previous Version | Graphics & Text | Print | Product List | Glossary On
Versions: 1 2 3 4 5 6 7 8 9 10 11 12 13 14 15 16 17 18 19 20 21 22 23 24 25 26 27 28 29 30 31 32 33 34 35 36 37 38 39 40 41 42 43 44 45 46 47 48 49 50
000
ASUS43 KBIS 232310
RWRND

NORTH DAKOTA REGIONAL WEATHER ROUNDUP
NATIONAL WEATHER SERVICE BISMARCK ND
600 PM CDT SUN APR 23 2017

NOTE: "FAIR" INDICATES FEW OR NO CLOUDS BELOW 12,000 FEET WITH NO
SIGNIFICANT WEATHER AND/OR OBSTRUCTIONS TO VISIBILITY.


NDZ001>003-009>011-017-240000-
NORTHWEST NORTH DAKOTA

CITY           SKY/WX    TMP DP  RH WIND       PRES   REMARKS
WILLISTON      CLOUDY    34  28  79 E18G25    29.90F
MINOT          CLOUDY    31  26  82 E20G28    29.97F WCI  19
MINOT AFB      CLOUDY    31  28  90 E21       29.96F WCI  18
$$

NDZ018>021-031>035-040>046-240000-
SOUTHWEST NORTH DAKOTA

CITY           SKY/WX    TMP DP  RH WIND       PRES   REMARKS
BISMARCK       CLOUDY    40  33  76 E21       29.88S
DICKINSON      CLOUDY    38  32  79 E14       29.79F
GARRISON         N/A     30  28  92 E22G29    29.92F WCI  17
HETTINGER ARPT PTSUNNY   46  36  68 NE15      29.77F
$$

NDZ004>008-012>016-024-026-027-054-240000-
NORTHEAST NORTH DAKOTA

CITY           SKY/WX    TMP DP  RH WIND       PRES   REMARKS
GRAND FORKS    PTSUNNY   33  29  85 E17       30.07F
GRND FRKS AFB  MIX PCPN  32  28  86 E14       30.07F FOG
DEVILS LAKE    LGT SNOW  28  26  92 E18       30.02F VSB 3/4 WCI  15
$$

NDZ022-023-025-028>030-036>039-047>053-240000-
SOUTHEAST NORTH DAKOTA

CITY           SKY/WX    TMP DP  RH WIND       PRES   REMARKS
FARGO          CLOUDY    42  33  70 NE25G31   29.95F
JAMESTOWN      CLOUDY    34  30  85 E22G31    29.91F
$$





USA.gov is the U.S. government's official web portal to all federal, state and local government web resources and services.